Regional Weather Roundup
Issued by NWS

Home | Current Version | Previous Version | Graphics & Text | Print | Product List | Glossary On
Versions: 1 2 3 4 5 6 7 8 9 10 11 12 13 14 15 16 17 18 19 20 21 22 23 24 25 26 27 28 29 30 31 32 33 34 35 36 37 38 39 40 41 42 43 44 45 46 47 48 49 50
598
ASUS43 KMKX 240910
RWRWI

WISCONSIN REGIONAL WEATHER ROUNDUP
NATIONAL WEATHER SERVICE MILWAUKEE/SULLIVAN WI
300 AM CST SAT FEB 24 2018

NOTE: "FAIR" INDICATES FEW OR NO CLOUDS BELOW 12,000 FEET WITH NO
SIGNIFICANT WEATHER AND/OR OBSTRUCTIONS TO VISIBILITY.

WIZ001-002-006>008-014>016-023>028-241000-
NORTHWEST WISCONSIN

CITY           SKY/WX    TMP DP  RH WIND       PRES   REMARKS
SUPERIOR ARPT  FAIR      15   8  73 SW5       30.25S WCI   8
ASHLAND        FAIR      16  15  96 SW5       30.23S WCI   9
HAYWARD        MOCLDY     4   0  83 CALM      30.21S FOG
SIREN          FOG        2  -1  86 CALM      30.23F VSB 1/4
CUMBERLAND     FOG        0  -6  78 CALM      30.20F VSB<1/4
RICE LAKE      FOG        0  -3  87 CALM      30.23S VSB<1/4
CHETEK         FOG        5   3  88 MISG      30.23S VSB 3/4
LADYSMITH      FAIR       4  -1  83 CALM      30.23S FOG
EAU CLAIRE     FOG       10   6  84 CALM      30.25S VSB 3/4
MENOMONIE        N/A      1  -3  83 CALM      30.25F FOG
NEW RICHMOND   CLOUDY    -2  -7  80 CALM      30.23S HAZE
OSCEOLA        FOG        2  -2  85 S3        30.26F VSB<1/4
$$

WIZ003>005-009-010-017-018-241000-
NORTH CENTRAL WISCONSIN

CITY           SKY/WX    TMP DP  RH WIND       PRES   REMARKS
MANITOWISH WTR FOG        6   5  96 CALM      30.17F VSB 1/4
ARBOR VITAE    FOG       13  11  92 CALM      30.17F VSB 1/4
WOODRUFF       FOG       13  11  92 CALM      30.17F VSB 1/4
RHINELANDER    FOG       10   9  95 CALM      30.18S VSB 1/4
EAGLE RIVER    FOG       15  14  97 CALM      30.17F VSB 1/4
LAND O LAKES   MOCLDY    19  17  93 CALM      30.18F
PHILLIPS       FOG        3   1  91 CALM      30.19F VSB<1/4
TOMAHAWK       CLOUDY     2  -1  88 CALM      30.20S
MEDFORD        FOG        4   1  87 CALM      30.20S VSB 1/4
MERRILL        FOG        8   6  90 CALM      30.22R VSB<1/4
$$

WIZ029-030-035-036-043>047-241000-
CENTRAL WISCONSIN

CITY           SKY/WX    TMP DP  RH WIND       PRES   REMARKS
WAUSAU         MOCLDY    16  15  96 S5        30.22R FOG     WCI   9
MOSINEE        FAIR      18  16  93 S5        30.24F FOG     WCI  11
MARSHFIELD     FAIR      14  12  92 CALM      30.22S FOG
STEVENS POINT  FAIR      19  19 100 CALM      30.25F FOG
WAUPACA        MOCLDY    26  22  86 CALM      30.27S
WAUTOMA        FAIR      21  19  92 CALM      30.27F
WISC RAPIDS    FAIR      18  14  84 CALM      30.27S FOG
CAMP DOUGLAS   FAIR      18  18  97 CALM      30.26F FOG
$$

WIZ011>013-019>022-031-037>040-048>050-241000-
NORTHEAST WISCONSIN

CITY           SKY/WX    TMP DP  RH WIND       PRES   REMARKS
ANTIGO         FOG        8   6  92 CALM      30.20S VSB 1/4
SHAWANO        CLOUDY    30  24  77 SW3       30.26R
OCONTO         CLOUDY    31  23  74 CALM      30.26S
STURGEON BAY   CLOUDY    31  24  75 W3        30.27S
GREEN BAY      CLOUDY    31  22  69 NW3       30.27S
MANITOWOC      CLOUDY    30  24  78 NW5       30.26F WCI  25
APPLETON       CLOUDY    27  19  74 CALM      30.24F
CLINTONVILLE   CLOUDY    29  22  76 W3        30.26S
OSHKOSH        FAIR      27  21  78 CALM      30.25F
$$

WIZ032>034-041-042-053>061-241000-
SOUTHWEST WISCONSIN

CITY           SKY/WX    TMP DP  RH WIND       PRES   REMARKS
LA CROSSE      FAIR      22  20  92 E3        30.27F FOG
SPARTA         FAIR      17  16  97 CALM      30.28F FOG
VIROQUA        FAIR      20  20 100 CALM      30.22F
BOSCOBEL       FAIR      24  21  88 CALM      30.25F FOG
PRAIRIE DU CHI FAIR      24  20  85 NW5       30.24F WCI  18
PLATTEVILLE    FAIR      26  26 100 NE10      30.21F WCI  16
$$

WIZ056-057-062-063-064-067-068-241000-
SOUTH CENTRAL WISCONSIN

CITY           SKY/WX    TMP DP  RH WIND       PRES   REMARKS
REEDSBURG      CLOUDY    26  22  84 NE5       30.25F WCI  21
BARABOO/DELLS  CLOUDY    26  22  82 NE3       30.24F
LONE ROCK      CLOUDY    28  23  81 NE7       30.26F HAZE    WCI  21
MINERAL POINT  CLOUDY    28  28 100 NE6       30.21F WCI  22
MADISON        MOCLDY    26  22  84 N6        30.25F WCI  19
MIDDLETON      CLOUDY    30  25  83 NE7       30.24F WCI  23
WATERTOWN      MOCLDY    28  24  86 N6        30.23F WCI  22
MONROE         FAIR      28  27  93 NE13      30.20F WCI  18
JANESVILLE     FAIR      30  28  93 NE5       30.22F WCI  25
$$

WIZ051-052-058>065-066-070>072-241000-
SOUTHEAST WISCONSIN

CITY           SKY/WX    TMP DP  RH WIND       PRES   REMARKS
MILWAUKEE      MOCLDY    31  25  78 N9        30.23F WCI  23
WAUKESHA       CLOUDY    28  23  80 NE6       30.24F WCI  22
MILWAUKEE/TIMM MOCLDY    28  21  74 N5        30.25F WCI  23
RACINE         FAIR      30  25  81 N6        30.25F WCI  24
BURLINGTON     FAIR      28  24  85 N5        30.24S WCI  23
KENOSHA        FAIR      31  25  78 N8        30.23F WCI  23
FOND DU LAC    CLOUDY    30  21  69 N5        30.25F WCI  25
SHEBOYGAN      CLOUDY    31  24  75 N6        30.26F WCI  25
WEST BEND      CLOUDY    30  27  86 N5        30.25S WCI  25
JUNEAU         CLOUDY    28  22  80 N5        30.26F WCI  23
$$

LSZ147-162-241000-
LAKE SUPERIOR

STATION/POSITION TIME  TEMP    WIND        PRES    WAVE
                       AIR SEA DIR/SP/G            HT/PER
                 (UTC) (F)     (DEG/KT/KT) (MB)    (FT/S)
DEVILS ISLAND    0900   23     270/ 15/ 17 1024.4R
SAXON HARBOR     0830   19     200/  4/  6 1023.0S
$$

LMZ867-665-643>646-241000-
LAKE MICHIGAN

STATION/POSITION TIME  TEMP    WIND        PRES    WAVE
                       AIR SEA DIR/SP/G            HT/PER
                 (UTC) (F)     (DEG/KT/KT) (MB)    (FT/S)
NORTHPORT PIER   0840   32                 1024.0F
KEWAUNEE LAKESHO 0842   31     320/  2/  5 1024.2S
SHEBOYGAN LAKESH 0900   31     350/  8/  9 1025.1F
PORT WASHINGTON  0830   31     360/  5/  7 1025.7F
KENOSHA   LAKESH 0900   32      10/ 11/ 13 1023.7
$$

TC  - TEMPERATURE IN CELSIUS
VSB - VISIBILITY IN STATUTE MILES
WCI - WIND CHILL INDEX
HX  - HEAT INDEX





USA.gov is the U.S. government's official web portal to all federal, state and local government web resources and services.